sat.trackr.live / text

‹ back to catalog

STARLINK-35609

NORAD 66100 · 2025-236Q

PAYLOAD ACTIVE UNKNOWN

§ Identity

Operator
Country
US
Launch date
2025-10-19
Launch site
AFWTR
Launch vehicle
Mass (kg)
RCS (m²)

Purposes: comms

External: N2YO · Heavens-Above · Gunter

§ Orbital elements

Epoch: 2026-05-25T04:00:03.998880Z

Period
93.85 min
Inclination
53.1592°
Eccentricity
0.0001207
Mean motion
15.34393073 rev/d
Perigee alt
461.9 km
Apogee alt
463.5 km
Semi-major
6,840.9 km
B*
-1.9328e-4
RAAN
108.8161°
Arg perigee
75.3771°
Mean anomaly
195.8587°
Rev number
585

§ Raw data

STARLINK-356091 66100U 25236Q   26145.16671295 -.00006899  00000+0 -19328-3 0  99952 66100  53.1592 108.8161 0001207  75.3771 195.8587 15.34393073  5854

JSON: /api/v1/satellites/66100 · /tle

For live sub-satellite position, see the globe view (requires WebGL).

§ Visibility from observer

Set your observer location to see the next 7 days of passes ≥ 10°. The values pass through the URL so the page stays shareable.

No JS? Fill the form by hand. The geolocation button needs JavaScript.